TimeCST,TemperatureF,Dew PointF,Humidity,Sea Level PressureIn,VisibilityMPH,Wind Direction,Wind SpeedMPH,Gust SpeedMPH,PrecipitationIn,Events,Conditions,WindDirDegrees,DateUTC
12:53 AM,21.0,18.0,88,30.10,10.0,Calm,Calm,-,N/A,,Clear,0,2011-11-22 06:53:00
1:53 AM,17.6,15.8,93,30.03,10.0,Calm,Calm,-,N/A,,Clear,0,2011-11-22 07:53:00
2:53 AM,19.9,17.1,89,30.09,10.0,Calm,Calm,-,N/A,,Clear,0,2011-11-22 08:53:00
3:53 AM,18.0,16.0,92,30.08,10.0,Calm,Calm,-,N/A,,Clear,0,2011-11-22 09:53:00
4:53 AM,19.0,16.0,88,30.09,10.0,Calm,Calm,-,N/A,,Partly Cloudy,0,2011-11-22 10:53:00
5:53 AM,18.0,16.0,92,30.11,9.0,NW,5.8,-,N/A,,Clear,320,2011-11-22 11:53:00
6:53 AM,18.0,15.1,88,30.14,9.0,NW,5.8,-,N/A,,Clear,310,2011-11-22 12:53:00
7:53 AM,18.0,16.0,92,30.13,7.0,NW,6.9,-,N/A,,Clear,320,2011-11-22 13:53:00
8:53 AM,26.1,24.1,92,30.14,6.0,NW,3.5,-,N/A,,Clear,320,2011-11-22 14:53:00
9:53 AM,37.0,30.9,79,30.13,10.0,WNW,9.2,-,N/A,,Clear,300,2011-11-22 15:53:00
10:53 AM,46.9,32.0,56,30.12,10.0,WNW,10.4,-,N/A,,Clear,300,2011-11-22 16:53:00
11:53 AM,54.0,27.0,35,30.10,10.0,NW,15.0,21.9,N/A,,Clear,310,2011-11-22 17:53:00
12:53 PM,57.0,26.1,30,30.07,10.0,NW,12.7,-,N/A,,Clear,310,2011-11-22 18:53:00
1:53 PM,57.9,25.0,28,30.06,10.0,WNW,13.8,-,N/A,,Clear,290,2011-11-22 19:53:00
2:53 PM,57.9,24.1,27,30.04,10.0,West,12.7,-,N/A,,Clear,280,2011-11-22 20:53:00
3:53 PM,57.0,24.1,28,30.06,10.0,WNW,10.4,-,N/A,,Clear,290,2011-11-22 21:53:00
4:53 PM,51.1,26.1,38,30.09,10.0,WNW,8.1,-,N/A,,Clear,300,2011-11-22 22:53:00
5:53 PM,39.0,24.1,55,30.12,9.0,NNW,4.6,-,N/A,,Clear,340,2011-11-22 23:53:00
6:53 PM,34.0,21.9,61,30.15,10.0,Calm,Calm,-,N/A,,Clear,0,2011-11-23 00:53:00
7:53 PM,32.0,24.1,73,30.16,10.0,Calm,Calm,-,N/A,,Clear,0,2011-11-23 01:53:00
8:53 PM,25.0,19.9,81,30.17,8.0,Calm,Calm,-,N/A,,Clear,0,2011-11-23 02:53:00
9:53 PM,24.1,19.9,84,30.18,10.0,Calm,Calm,-,N/A,,Clear,0,2011-11-23 03:53:00
10:53 PM,23.0,19.0,85,30.17,10.0,WNW,3.5,-,N/A,,Clear,290,2011-11-23 04:53:00
11:53 PM,23.0,18.0,81,30.16,10.0,WNW,3.5,-,N/A,,Clear,300,2011-11-23 05:53:00